This demonstration page uses our WeatherBlox Daily Observations layout. Learn more.

Left ArrowRight Arrow

38.83388, -104.82136

Hourly Observations for April 12, 2022

Temp ( °F °C ) Dew Point ( °F °C ) Humidity (%) Winds ( mph kmh ) Pressure ( in mb ) Visibility ( mi km ) Precip ( " mm )
12:33 am 00:33 Cloudy 55 13 21 -6 26 26 ESE 24 39 29.13 987 7 11 0.00 0.00
12:41 am 00:41 Cloudy 55 13 21 -6 26 26 E 28 44 29.13 986 8 13 0.00 0.00
12:53 am 00:53 Cloudy 55 13 21 -6 26 26 ESE 16 26 29.11 986 8 13 0.00 0.00
12:58 am 00:58 Cloudy 55 13 21 -6.1 26 26 E 30 48 29.10 986 9 14 0.00 0.00
1:02 am 01:02 Cloudy 55 13 21 -6 26 26 E 22 35 29.11 986 9 14 0.00 0.00
1:03 am 01:03 Cloudy 55 13 21 -6 26 26 E 21 33 29.10 986 9 14 0.00 0.00
1:58 am 01:58 Cloudy 54 12.4 20 -6.6 26 26 E 35 56 29.07 984 10 16 0.00 0.00
2:58 am 02:58 Partly Cloudy 53 11.5 20 -6.4 28 28 E 26 43 29.06 984 10 16 0.00 0.00
3:58 am 03:58 Partly Cloudy 53 11.4 20 -6.5 28 28 ESE 31 50 29.02 983 10 16 0.00 0.00
4:58 am 04:58 Clear 52 11.1 20 -6.7 28 28 E 25 41 29.00 982 10 16 0.00 0.00
5:56 am 05:56 Clear 52 11 19 -7 28 28 SE 16 26 29.02 983 10 16 0.00 0.00
5:58 am 05:58 Clear 52 10.9 20 -6.9 28 28 E 14 22 29.01 983 10 16 0.00 0.00
6:00 am 06:00 Clear 52 11 19 -7 28 28 E 13 20 29.00 982 10 16 0.00 0.00
6:58 am 06:58 Mostly Sunny 51 10.3 19 -7 29 29 E 24 39 29.00 982 10 16 0.00 0.00
7:42 am 07:42 Sunny 52 11 19 -7 28 28 ENE 21 33 29.02 983 10 16 0.00 0.00
7:58 am 07:58 Sunny 51 10.7 20 -6.6 29 29 ENE 21 33 29.02 983 10 16 0.00 0.00
8:16 am 08:16 Sunny 52 11 19 -7 28 28 SE 17 28 29.05 984 10 16 0.00 0.00
8:23 am 08:23 Sunny 52 11 21 -6 30 30 E 15 24 29.04 983 10 16 0.00 0.00
8:38 am 08:38 Sunny 52 11 19 -7 28 28 ESE 15 24 29.06 984 10 16 0.00 0.00
8:55 am 08:55 Mostly Sunny 54 12 19 -7 26 26 ESE 13 20 29.05 984 10 16 0.00 0.00
8:58 am 08:58 Mostly Sunny 53 11.5 20 -6.9 27 27 ESE 13 20 29.04 984 10 16 0.00 0.00
9:27 am 09:27 Mostly Cloudy 54 12 19 -7 26 26 ESE 21 33 29.05 984 10 16 0.00 0.00
9:38 am 09:38 Mostly Cloudy 55 13 21 -6 26 26 ESE 14 22 29.05 984 10 16 0.00 0.00
9:58 am 09:58 Mostly Cloudy 55 13 20 -6.6 25 25 E 25 41 29.06 984 10 16 0.00 0.00
10:06 am 10:06 Mostly Cloudy 55 13 21 -6 26 26 ENE 14 22 29.07 984 10 16 0.00 0.00
10:08 am 10:08 Mostly Cloudy 57 14 21 -6 25 25 E 20 31 29.05 984 10 16 0.00 0.00
10:33 am 10:33 Partly Cloudy 57 14 18 -8 21 21 ESE 23 37 29.08 985 10 16 0.00 0.00
10:40 am 10:40 Partly Cloudy 57 14 18 -8 21 21 E 21 33 29.10 986 10 16 0.00 0.00
10:41 am 10:41 Partly Cloudy 57 14 18 -8 21 21 NNE 17 28 29.10 985 10 16 0.00 0.00
10:58 am 10:58 Mostly Sunny 54 12.2 22 -5.3 29 29 NNE 7 11 29.14 987 10 16 0.00 0.00
11:47 am 11:47 Mostly Sunny 48 9 23 -5 37 37 WSW 17 28 29.18 988 10 16 0.00 0.00
11:58 am 11:58 Mostly Sunny 47 8.1 23 -5 39 39 WSW 14 22 29.18 988 10 16 0.00 0.00
11:59 am 11:59 Mostly Sunny 46 8 23 -5 40 40 SW 12 19 29.19 989 10 16 0.00 0.00
12:58 pm 12:58 Mostly Sunny 49 9.7 24 -4.7 36 36 ENE 9 15 29.18 988 10 16 0.00 0.00
1:36 pm 13:36 Mostly Sunny 52 11 19 -7 28 28 ESE 14 22 29.18 988 10 16 0.00 0.00
1:58 pm 13:58 Partly Cloudy 51 10.5 19 -7.3 28 28 ENE 10 17 29.17 988 10 16 0.00 0.00
2:58 pm 14:58 Mostly Sunny 53 11.4 19 -7 27 27 NNE 14 22 29.23 990 10 16 0.00 0.00
3:00 pm 15:00 Mostly Sunny 52 11 19 -7 28 28 ENE 17 28 29.23 990 10 16 0.00 0.00
3:44 pm 15:44 Mostly Cloudy 48 9 18 -8 29 29 ENE 13 20 29.22 990 10 16 0.00 0.00
3:58 pm 15:58 Mostly Cloudy 48 8.7 18 -7.9 30 30 E 14 22 29.22 990 10 16 0.00 0.00
4:31 pm 16:31 Cloudy 48 9 18 -8 29 29 E 17 28 29.21 989 10 16 0.00 0.00
4:58 pm 16:58 Cloudy 47 8.3 16 -8.7 29 29 NNE 6 9 29.23 990 10 16 0.00 0.00
5:58 pm 17:58 Mostly Cloudy 46 7.9 14 -10 27 27 Calm 29.24 990 10 16 0.00 0.00
6:58 pm 18:58 Mostly Sunny 43 6.2 12 -11 28 28 WNW 6 9 29.27 991 10 16 0.00 0.00
7:58 pm 19:58 undefined N/A N/A N/A SW 13 20 N/A N/A 0.00 0.00
9:58 pm 21:58 Partly Cloudy 31 -0.7 16 -8.9 54 54 W 8 13 29.33 993 10 16 0.00 0.00
10:58 pm 22:58 Mostly Clear 30 -1.2 14 -9.8 52 52 W 8 13 29.36 994 10 16 0.00 0.00
11:58 pm 23:58 Mostly Clear 29 -1.9 13 -10.7 51 51 Calm 29.40 996 10 16 0.00 0.00

Powered by AerisWeather